Weather in Avdeyevka

Russia / Tambov Oblast     52°38′14″N   40°53′24″E
temp.,
°C
wind,
m/s
gust,
m/s
humid.,
%
clouds,
%
prec.,
mm/h
press.,
hPa
HPBL,
m
31 july, sat
sat3100:00+19w23930 0.0 100645
03:00+18w36930 0.0 1006132
06:00+19wsw36900 0.0 1007174
09:00+24w46620 0.0 1008744
12:00+28w46391 0.0 10082284
15:00+29w463426 0.0 10082488
18:00+28nw12410 0.0 1008268
21:00+25sw2247100 0.0 101023
1 august, sun
sun100:00+22nne115426 0.0 101112
03:00+20wnw226050 0.0 101218
06:00+20w226833 0.0 101350
09:00+25w235136 0.0 1014520
12:00+29w343999 0.0 10131665
15:00+31wsw24317 0.0 10132477
18:00+31se223723 0.0 1011144
21:00+26se374566 0.0 1012125
2 august, mon
mon200:00+22s35520 0.0 101371
03:00+21s36630 0.0 101389
06:00+21s376571 0.0 1013141
09:00+28s46467 0.0 1012447
12:00+32s57355 0.0 10111464
15:00+34ssw692383 0.0 10083458
18:00+32s593238 0.0 1007373
21:00+27se464196 0.2 1006102
3 august, tue
tue300:00+25ssw4745100 0.0 1006111
03:00+23wsw486299 0.1 1007223
06:00+21sw61273100 0.0 1008401
09:00+24sw6963100 0.0 1008684
12:00+25sw465735 0.1 1008797
15:00+29w893774 0.1 10072221
18:00+25w3647100 0.2 1009591
21:00+21nw386155 0.2 1011272
4 august, wed
wed400:00+17nnw34750 0.0 101387
03:00+16nnw22800 0.0 101326
06:00+16wnw23780 0.0 1015105
09:00+22nw33565 0.0 1015761
12:00+25wnw344049 0.0 10152081
15:00+24wnw2346100 0.0 1015347
18:00+22sw344898 0.0 101586
21:00+19nnw33565 0.0 101627